Hourly Weather Roundup
Issued by NWS Central Illinois

Home | Current Version | Previous Version | Text Only | Print | Product List | Glossary On
Versions: 1 2 3 4 5 6 7 8 9 10 11 12 13 14 15 16 17 18 19 20 21 22 23 24 25 26 27 28 29 30 31 32 33 34 35 36 37 38 39 40 41 42 43 44 45 46 47 48 49 50
000
NZUS43 KILX 251510
HWRILX

AREA WEATHER ROUNDUP
NATIONAL WEATHER SERVICE, LINCOLN IL
900 AM CST THU DEC 25 2014


CITY           SKY/WX    TMP DP  RH WIND       PRES   REMARKS
BLOOMINGTON    CLOUDY    35  30  82 SW16      29.98R WCI  25
CHAMPAIGN      CLOUDY    36  32  85 SW13      30.01R WCI  27
DECATUR        CLOUDY    37  30  75 SW13      30.01R WCI  29
FLORA          SUNNY     39  32  76 SW9       30.09R WCI  33
GALESBURG      SUNNY     34  31  88 S13G20    29.91R WCI  25
JACKSONVILLE   SUNNY     38  32  78 S14       29.97S WCI  30
LACON          MOSUNNY   36  28  74 SW10G18   29.94R WCI  28
LAWRENCEVILLE  CLOUDY    39  33  79 SW10      30.10R WCI  32
LITCHFIELD     SUNNY     36  31  83 S13       30.02R WCI  27
$$


CITY           SKY/WX    TMP DP  RH WIND       PRES   REMARKS
LINCOLN        SUNNY     37  31  78 S6        29.99R WCI  33
MACOMB         SUNNY     34  31  88 S13       29.94R WCI  25
MATTOON        CLOUDY    37  31  78 SW9       30.03R WCI  30
MT CARMEL AP   CLOUDY    41  32  70 SW9       30.10R
OLNEY-NOBLE AP CLOUDY    37  32  81 CALM      30.10R
PARIS          CLOUDY    37  33  87 SW12G18   30.05R WCI  29
PEORIA         SUNNY     37  29  72 S10       29.95R WCI  30
PONTIAC        CLOUDY    37  32  83 SW10      29.97R WCI  29
RANTOUL        CLOUDY    37  33  83 SW10      30.00R WCI  30
ROBINSON       CLOUDY    38  33  82 SW8       30.09R WCI  32
SPRINGFIELD    SUNNY     38  30  73 S13       29.99R WCI  30
TAYLORVILLE    MOSUNNY   36  32  87 S12       30.02R WCI  27
$$

...REGIONAL REPORTS...


CITY           SKY/WX    TMP DP  RH WIND       PRES   REMARKS
CHICAGO O`HARE CLOUDY    34  27  75 SW16G22   29.91R WCI  24
KANKAKEE       CLOUDY    35  31  85 SW10G16   29.97R WCI  28
MOLINE         SUNNY     35  28  75 S13       29.89R WCI  26
MOUNT VERNON   SUNNY     39  32  75 SW10      30.09R WCI  32
PITTSFIELD     SUNNY     37  32  83 S12       29.97R WCI  29
QUINCY         SUNNY     35  29  78 S14       29.93R WCI  26
ROCKFORD       CLOUDY    34  26  72 SW15      29.92R WCI  24
$$


CITY           SKY/WX    TMP DP  RH WIND       PRES   REMARKS
BURLINGTON     SUNNY     35  31  85 S13       29.89R WCI  26
CEDAR RAPIDS   PTSUNNY   32  30  92 S16       29.81R WCI  21
DES MOINES     CLOUDY    35  27  72 S12       29.75R WCI  27
KIRKSVILLE     PTSUNNY   33  30  88 S13       29.87R WCI  24
OTTUMWA        PTSUNNY   33  29  85 S15       29.82R WCI  23
ST LOUIS       MOSUNNY   38  30  73 S10       30.03R WCI  31
$$


CITY           SKY/WX    TMP DP  RH WIND       PRES   REMARKS
TERRE HAUTE    CLOUDY    38  30  73 SW9       30.07R WCI  31
EVANSVILLE     MOSUNNY   41  33  73 SW12      30.13R WCI  34
INDIANAPOLIS   CLOUDY    34  29  82 SW14      30.05R WCI  25
LAFAYETTE      CLOUDY    35  30  82 SW10      30.01R WCI  27
MADISON        CLOUDY    32  26  78 SW10G18   29.83R WCI  24
MILWAUKEE      CLOUDY    35  26  69 SW18      29.86R WCI  24
$$




USA.gov is the U.S. government's official web portal to all federal, state and local government web resources and services.